Meteo pe oră la Dziardonice

Astăzi, 4 Martie, Joi

Timp Temperatura Precipitaţii Vânt Presiune Umiditate
00:00 +3°C° 0 mm 3 m/s 753 mmHg 86%
01:00 +1°C° 0 mm 4 m/s 752 mmHg 89%
02:00 +1°C° 0 mm 4 m/s 752 mmHg 90%
03:00 +1°C° 0 mm 4 m/s 751 mmHg 90%
04:00 +3°C° 0 mm 4 m/s 751 mmHg 91%
05:00 +2°C° 0 mm 5 m/s 750 mmHg 92%
06:00 +3°C° 0 mm 5 m/s 750 mmHg 93%
07:00 +3°C° 0 mm 5 m/s 750 mmHg 94%
08:00 +3°C° 0 mm 6 m/s 750 mmHg 88%
09:00 +4°C° 0 mm 6 m/s 750 mmHg 82%
10:00 +4°C° 0 mm 6 m/s 750 mmHg 75%
11:00 +4°C° 0 mm 6 m/s 750 mmHg 74%
12:00 +4°C° 0 mm 6 m/s 750 mmHg 73%
13:00 +3°C° 0 mm 5 m/s 750 mmHg 73%
14:00 +3°C° 0 mm 5 m/s 749 mmHg 74%
15:00 +2°C° 0 mm 5 m/s 749 mmHg 75%
16:00 +2°C° 0 mm 5 m/s 749 mmHg 77%
17:00 +1°C° 0 mm 4 m/s 749 mmHg 78%
18:00 +1°C° 0 mm 4 m/s 749 mmHg 79%
19:00 0°C° 0 mm 4 m/s 749 mmHg 81%
20:00 0°C° 0.1 mm 4 m/s 749 mmHg 84%
21:00 -1°C° 0.1 mm 4 m/s 750 mmHg 88%
22:00 -2°C° 0.1 mm 4 m/s 750 mmHg 91%
23:00 -2°C° 0 mm 4 m/s 750 mmHg 89%

Mâine, 5 Martie, Vineri

Timp Temperatura Precipitaţii Vânt Presiune Umiditate
00:00 -2°C° 0 mm 4 m/s 751 mmHg 86%
01:00 -3°C° 0 mm 4 m/s 751 mmHg 83%
02:00 -2°C° 0 mm 3 m/s 751 mmHg 84%
03:00 -2°C° 0 mm 3 m/s 752 mmHg 85%
04:00 -4°C° 0 mm 3 m/s 752 mmHg 86%
05:00 -4°C° 0 mm 3 m/s 753 mmHg 84%
06:00 -4°C° 0 mm 3 m/s 753 mmHg 83%
07:00 -4°C° 0 mm 3 m/s 754 mmHg 81%
08:00 -2°C° 0 mm 3 m/s 754 mmHg 73%
09:00 0°C° 0 mm 3 m/s 754 mmHg 65%
10:00 +1°C° 0 mm 3 m/s 755 mmHg 57%
11:00 0°C° 0.1 mm 4 m/s 755 mmHg 53%
12:00 +1°C° 0.1 mm 4 m/s 755 mmHg 49%
13:00 +3°C° 0.1 mm 4 m/s 756 mmHg 45%
14:00 +1°C° 0.2 mm 4 m/s 756 mmHg 46%
15:00 +1°C° 0.2 mm 4 m/s 756 mmHg 47%
16:00 +2°C° 0.2 mm 3 m/s 756 mmHg 49%
17:00 +1°C° 0.1 mm 3 m/s 757 mmHg 54%
18:00 +1°C° 0.1 mm 2 m/s 757 mmHg 60%
19:00 +1°C° 0.1 mm 1 m/s 758 mmHg 66%
20:00 -2°C° 0 mm 2 m/s 758 mmHg 69%
21:00 -2°C° 0 mm 2 m/s 759 mmHg 72%
22:00 -3°C° 0 mm 2 m/s 759 mmHg 74%
23:00 -3°C° 0 mm 2 m/s 760 mmHg 77%

Poimâine, 6 Martie, Sâmbătă

Timp Temperatura Precipitaţii Vânt Presiune Umiditate
00:00 -4°C° 0 mm 3 m/s 760 mmHg 79%
01:00 -4°C° 0 mm 3 m/s 760 mmHg 81%
02:00 -4°C° 0 mm 3 m/s 761 mmHg 80%
03:00 -4°C° 0 mm 3 m/s 761 mmHg 80%
04:00 -4°C° 0 mm 3 m/s 761 mmHg 79%
05:00 -4°C° 0 mm 3 m/s 761 mmHg 77%
06:00 -4°C° 0 mm 3 m/s 761 mmHg 75%
07:00 -3°C° 0 mm 2 m/s 762 mmHg 72%
08:00 -2°C° 0 mm 3 m/s 762 mmHg 64%
09:00 0°C° 0 mm 3 m/s 762 mmHg 57%
10:00 0°C° 0 mm 4 m/s 762 mmHg 49%
11:00 0°C° 0 mm 4 m/s 762 mmHg 46%
12:00 +1°C° 0 mm 4 m/s 762 mmHg 43%
13:00 +2°C° 0 mm 5 m/s 762 mmHg 41%
14:00 +1°C° 0 mm 5 m/s 761 mmHg 42%
15:00 +1°C° 0 mm 5 m/s 761 mmHg 44%
16:00 +1°C° 0 mm 5 m/s 760 mmHg 45%
17:00 0°C° 0 mm 5 m/s 760 mmHg 49%
18:00 -1°C° 0 mm 5 m/s 760 mmHg 52%
19:00 -2°C° 0 mm 5 m/s 759 mmHg 55%
20:00 -2°C° 0 mm 5 m/s 759 mmHg 56%
21:00 -3°C° 0 mm 6 m/s 759 mmHg 58%
22:00 -3°C° 0 mm 6 m/s 758 mmHg 59%
23:00 -3°C° 0 mm 6 m/s 758 mmHg 63%

7 Martie, Duminică

Timp Temperatura Precipitaţii Vânt Presiune Umiditate
00:00 -3°C° 0 mm 6 m/s 757 mmHg 68%
01:00 -3°C° 0 mm 7 m/s 757 mmHg 72%
02:00 -3°C° 0 mm 7 m/s 756 mmHg 75%
03:00 -3°C° 0 mm 7 m/s 756 mmHg 78%
04:00 -3°C° 0 mm 7 m/s 755 mmHg 81%
05:00 -3°C° 0 mm 7 m/s 755 mmHg 81%
06:00 -4°C° 0 mm 8 m/s 755 mmHg 80%
07:00 -4°C° 0 mm 8 m/s 754 mmHg 79%
08:00 -4°C° 0 mm 8 m/s 754 mmHg 79%
09:00 -4°C° 0 mm 8 m/s 754 mmHg 79%
10:00 -4°C° 0 mm 8 m/s 754 mmHg 79%
11:00 -2°C° 0 mm 8 m/s 754 mmHg 76%
12:00 -2°C° 0 mm 8 m/s 753 mmHg 73%
13:00 -2°C° 0 mm 8 m/s 753 mmHg 70%
14:00 -2°C° 0 mm 7 m/s 753 mmHg 70%
15:00 -2°C° 0 mm 7 m/s 753 mmHg 70%
16:00 -2°C° 0 mm 7 m/s 752 mmHg 70%
17:00 -2°C° 0 mm 6 m/s 752 mmHg 73%
18:00 -3°C° 0 mm 6 m/s 752 mmHg 76%
19:00 -2°C° 0 mm 5 m/s 752 mmHg 79%
20:00 -2°C° 0 mm 5 m/s 752 mmHg 81%
21:00 -2°C° 0 mm 5 m/s 753 mmHg 83%
22:00 -4°C° 0 mm 5 m/s 753 mmHg 86%
23:00 -3°C° 0.2 mm 4 m/s 753 mmHg 86%

8 Martie, Luni

Timp Temperatura Precipitaţii Vânt Presiune Umiditate
00:00 -2°C° 0.2 mm 3 m/s 753 mmHg 87%
01:00 -2°C° 0.2 mm 3 m/s 753 mmHg 88%
02:00 -3°C° 0 mm 2 m/s 753 mmHg 83%
03:00 -3°C° 0 mm 2 m/s 753 mmHg 79%
04:00 -1°C° 0 mm 1 m/s 753 mmHg 75%
05:00 -1°C° 0 mm 1 m/s 754 mmHg 75%
06:00 -1°C° 0 mm 1 m/s 754 mmHg 75%
07:00 -2°C° 0 mm 1 m/s 754 mmHg 75%
08:00 -2°C° 0 mm 2 m/s 755 mmHg 68%
09:00 -1°C° 0 mm 2 m/s 755 mmHg 60%
10:00 0°C° 0 mm 3 m/s 756 mmHg 53%
11:00 0°C° 0 mm 3 m/s 756 mmHg 52%
12:00 +1°C° 0 mm 3 m/s 756 mmHg 50%
13:00 +1°C° 0 mm 3 m/s 756 mmHg 48%
14:00 +1°C° 0 mm 3 m/s 756 mmHg 50%
15:00 +1°C° 0 mm 3 m/s 756 mmHg 53%
16:00 +1°C° 0 mm 3 m/s 756 mmHg 55%
17:00 -1°C° 0 mm 2 m/s 757 mmHg 62%
18:00 -2°C° 0 mm 2 m/s 757 mmHg 69%
19:00 -3°C° 0 mm 2 m/s 757 mmHg 76%
20:00 -4°C° 0 mm 2 m/s 758 mmHg 77%
21:00 -4°C° 0 mm 2 m/s 758 mmHg 79%
22:00 -4°C° 0 mm 2 m/s 758 mmHg 81%
23:00 -4°C° 0 mm 2 m/s 758 mmHg 80%

9 Martie, Marţi

Timp Temperatura Precipitaţii Vânt Presiune Umiditate
00:00 -4°C° 0 mm 2 m/s 758 mmHg 79%
01:00 -5°C° 0 mm 2 m/s 758 mmHg 79%
02:00 -4°C° 0 mm 2 m/s 758 mmHg 77%
03:00 -4°C° 0 mm 2 m/s 758 mmHg 75%
04:00 -4°C° 0 mm 2 m/s 758 mmHg 73%
05:00 -4°C° 0 mm 2 m/s 758 mmHg 71%
06:00 -4°C° 0 mm 2 m/s 758 mmHg 69%
07:00 -5°C° 0 mm 3 m/s 759 mmHg 67%
08:00 -4°C° 0 mm 3 m/s 759 mmHg 62%
09:00 -2°C° 0 mm 3 m/s 759 mmHg 57%
10:00 -1°C° 0 mm 3 m/s 759 mmHg 52%
11:00 -1°C° 0 mm 3 m/s 759 mmHg 48%
12:00 0°C° 0 mm 3 m/s 759 mmHg 44%
13:00 +1°C° 0 mm 3 m/s 758 mmHg 40%
14:00 +1°C° 0 mm 3 m/s 758 mmHg 41%
15:00 0°C° 0 mm 3 m/s 758 mmHg 41%
16:00 0°C° 0 mm 3 m/s 757 mmHg 42%
17:00 -1°C° 0 mm 3 m/s 758 mmHg 46%
18:00 -2°C° 0 mm 3 m/s 758 mmHg 50%
19:00 -4°C° 0 mm 3 m/s 758 mmHg 54%
20:00 -5°C° 0 mm 3 m/s 758 mmHg 53%
21:00 -5°C° 0 mm 4 m/s 758 mmHg 53%
22:00 -5°C° 0 mm 4 m/s 758 mmHg 52%
23:00 -5°C° 0 mm 4 m/s 758 mmHg 53%
Arată mai mult

Formular de consimțământ

Meteoprog și furnizorii noștri de servicii pot stoca și accesa date personale, precum cookies, identificatori de dispozitiv sau alte tehnologii similare pe dispozitivul dumneavoastră și procesa astfel de date pentru a personaliza conținutul și reclamele, dar și pentru a oferi caracteristici de social media și pentru a analiza traficul.

  • Stocarea și/sau accesarea informațiilor pe dispozitivul dumneavoastră

    Cookies, identificatori de dispozitiv sau alte informații pot fi stocate sau accesate pe dispozitiv în scopurile indicate mai sus.

  • Reclame și conținut personalizat, evaluarea reclamelor și a conținutului, informații despre audiențe și dezvoltarea produselor

    Reclamele și conținutul pot fi personalizate pe baza unui profil. Pot fi adăugate date suplimentare pentru a personaliza mai bine reclamele și conținutul. Performanța reclamelor și conținutului poate fi măsurată. Pot fi obținute informații despre utilizatorii care au văzut reclamele și conținutul. Aceste date pot fi utilizate pentru a dezvolta sau îmbunătăți experiența utilizatorilor, sistemele și software-ul.

Dând clic pe ‘Sunt de acord’, permiteți utilizarea cookie-urilor menționate, a identificatorilor de dispozitiv, balizelor web sau altor tehnologii similare. Setările pot fi modificate din browser-ul dispozitivului dumneavoastră.

În anumite scopuri, interesele legitime pot prima asupra consimțământului. Puteți citi mai multe informații în acest sens în Politica privind Confidențialitatea Datelor și Cookie.